This is the latest recevied weather packets stored in our database for station/object WP3OF-2. If no packets are shown the sender has not sent any weather packets the latest 10 day(s).
| Time | Temp. | Humidity | Pressure | Rain* | Wind** | Luminosity | Snow |
|---|---|---|---|---|---|---|---|
| 1788620278 | 23.33° C | 95% | 1026 hPa | 0 mm | - | 164 W/m² | - |
| 1788619973 | 23.33° C | 95% | 1025.6 hPa | 0 mm | - | 285 W/m² | - |
| 1788619672 | 23.89° C | 94% | 1026 hPa | 0 mm | - | 261 W/m² | - |
| 1788619368 | 23.89° C | 93% | 1026 hPa | 0 mm | - | 314 W/m² | - |
| 1788619067 | 23.89° C | 91% | 1026 hPa | 0 mm | - | 293 W/m² | - |
| 1788618767 | 24.44° C | 92% | 1025.6 hPa | 0 mm | - | 774 W/m² | - |
| 1788618465 | 25° C | 91% | 1026 hPa | 0 mm | - | 410 W/m² | - |
| 1788618160 | 24.44° C | 92% | 1025.6 hPa | 0 mm | - | 971 W/m² | - |
| 1788617856 | 24.44° C | 91% | 1026 hPa | 0 mm | - | 843 W/m² | - |
| 1788617552 | 23.89° C | 91% | 1026 hPa | 0 mm | - | 914 W/m² | - |
| 1788617247 | 23.89° C | 91% | 1026 hPa | 0 mm | - | 963 W/m² | - |
| 1788616941 | 24.44° C | 90% | 1026 hPa | 0 mm | - | 902 W/m² | - |
| 1788616640 | 23.89° C | 91% | 1026 hPa | 0 mm | - | 659 W/m² | - |
| 1788616337 | 23.89° C | 91% | 1025.6 hPa | 0 mm | - | 545 W/m² | - |
| 1788616036 | 23.89° C | 90% | 1026 hPa | 0 mm | - | 734 W/m² | - |
| 1788615735 | 23.89° C | 89% | 1025.6 hPa | 0 mm | - | 739 W/m² | - |
| 1788615430 | 23.89° C | 91% | 1025.6 hPa | 0 mm | - | 603 W/m² | - |
| 1788615126 | 23.89° C | 90% | 1025.6 hPa | 0 mm | - | 458 W/m² | - |
| 1788614824 | 23.89° C | 90% | 1025.6 hPa | 0 mm | - | 512 W/m² | - |
| 1788614520 | 23.89° C | 92% | 1025.6 hPa | 0 mm | - | 610 W/m² | - |
| 1788614215 | 23.33° C | 91% | 1025.6 hPa | 0 mm | - | 465 W/m² | - |
| 1788613910 | 22.78° C | 92% | 1025.2 hPa | 0 mm | - | 362 W/m² | - |
| 1788613604 | 22.78° C | 93% | 1025.6 hPa | 0 mm | - | 274 W/m² | - |
| 1788613304 | 22.78° C | 94% | 1025.2 hPa | 0 mm | - | 144 W/m² | - |
| 1788612999 | 22.78° C | 93% | 1025.6 hPa | 0 mm | - | 157 W/m² | - |
* Rain latest hour (hover to see other rain measurements)
** Current wind speed in m/s (hover to see current wind gust speed)